Time,TemperatureF,DewpointF,PressureIn,WindDirection,WindDirectionDegrees,WindSpeedMPH,WindSpeedGustMPH,Humidity,HourlyPrecipIn,Conditions,Clouds,dailyrainin,SolarRadiationWatts/m^2,SoftwareType,DateUTC
2013-06-24 00:03:00,55.0,48.0,-100.00,SW,214,6.0,13.0,76,0.00,,,0.24,11.000000,,2013-06-24 07:03:00,
2013-06-24 00:12:00,55.0,48.0,-100.00,SW,214,6.0,13.0,76,0.00,,,0.24,11.000000,,2013-06-24 07:12:00,
2013-06-24 10:47:00,52.0,45.0,-100.00,South,191,3.0,8.0,76,0.00,,,0.28,208.000000,,2013-06-24 17:47:00,
2013-06-24 10:57:00,52.0,45.0,-100.00,South,191,3.0,8.0,76,0.00,,,0.28,208.000000,,2013-06-24 17:57:00,
2013-06-24 11:12:00,52.0,45.0,-100.00,South,191,3.0,8.0,76,0.00,,,0.28,208.000000,,2013-06-24 18:12:00,
2013-06-24 11:55:00,54.0,52.0,-100.00,SSW,195,4.0,9.0,94,0.00,,,0.28,370.000000,,2013-06-24 18:55:00,
2013-06-24 12:12:00,54.0,52.0,-100.00,SSW,195,4.0,9.0,94,0.00,,,0.28,370.000000,,2013-06-24 19:12:00,
2013-06-24 12:46:00,59.0,56.0,-100.00,South,188,3.0,10.0,90,0.00,,,0.28,609.000000,,2013-06-24 19:46:00,
2013-06-24 12:55:00,59.0,56.0,-100.00,South,188,3.0,10.0,90,0.00,,,0.28,609.000000,,2013-06-24 19:55:00,
2013-06-24 13:02:00,59.0,56.0,-100.00,South,188,3.0,10.0,90,0.00,,,0.28,609.000000,,2013-06-24 20:02:00,
2013-06-24 13:11:00,59.0,56.0,-100.00,South,188,3.0,10.0,90,0.00,,,0.28,609.000000,,2013-06-24 20:11:00,
2013-06-24 13:46:00,56.0,53.0,-100.00,SSW,193,4.0,10.0,90,0.00,,,0.28,391.000000,,2013-06-24 20:46:00,
2013-06-24 13:55:00,56.0,53.0,-100.00,SSW,193,4.0,10.0,90,0.00,,,0.28,391.000000,,2013-06-24 20:55:00,
2013-06-24 14:02:00,56.0,53.0,-100.00,SSW,193,4.0,10.0,90,0.00,,,0.28,391.000000,,2013-06-24 21:02:00,
2013-06-24 14:47:00,61.0,54.0,-100.00,SSW,194,2.0,10.0,78,0.00,,,0.28,597.000000,,2013-06-24 21:47:00,
2013-06-24 14:54:00,61.0,54.0,-100.00,SSW,194,2.0,10.0,78,0.00,,,0.28,597.000000,,2013-06-24 21:54:00,
2013-06-24 15:03:00,61.0,54.0,-100.00,SSW,194,2.0,10.0,78,0.00,,,0.28,597.000000,,2013-06-24 22:03:00,
2013-06-24 15:12:00,61.0,54.0,-100.00,SSW,194,2.0,10.0,78,0.00,,,0.28,597.000000,,2013-06-24 22:12:00,
2013-06-24 15:49:00,58.0,53.0,-100.00,WSW,250,0.0,9.0,83,0.00,,,0.28,488.000000,,2013-06-24 22:49:00,
2013-06-24 15:55:00,58.0,53.0,-100.00,WSW,250,0.0,9.0,83,0.00,,,0.28,488.000000,,2013-06-24 22:55:00,
2013-06-24 16:02:00,58.0,53.0,-100.00,WSW,250,0.0,9.0,83,0.00,,,0.28,488.000000,,2013-06-24 23:02:00,
2013-06-24 16:11:00,58.0,53.0,-100.00,WSW,250,0.0,9.0,83,0.00,,,0.28,488.000000,,2013-06-24 23:11:00,
2013-06-24 16:45:00,63.0,55.0,-100.00,South,186,1.0,5.0,74,0.00,,,0.28,453.000000,,2013-06-24 23:45:00,
2013-06-24 16:54:00,63.0,55.0,-100.00,South,186,1.0,5.0,74,0.00,,,0.28,453.000000,,2013-06-24 23:54:00,
2013-06-24 17:02:00,63.0,55.0,-100.00,South,186,1.0,5.0,74,0.00,,,0.28,453.000000,,2013-06-25 00:02:00,
2013-06-24 17:12:00,63.0,55.0,-100.00,South,186,1.0,5.0,74,0.00,,,0.28,453.000000,,2013-06-25 00:12:00,
2013-06-24 18:46:00,58.0,53.0,-100.00,South,188,0.0,5.0,83,-99.99,,,0.24,173.000000,,2013-06-25 01:46:00,
2013-06-24 18:55:00,58.0,53.0,-100.00,South,188,0.0,5.0,83,-99.99,,,0.24,173.000000,,2013-06-25 01:55:00,
2013-06-24 19:02:00,58.0,53.0,-100.00,South,188,0.0,5.0,83,-99.99,,,0.24,173.000000,,2013-06-25 02:02:00,
2013-06-24 19:11:00,58.0,53.0,-100.00,South,188,0.0,5.0,83,-99.99,,,0.24,173.000000,,2013-06-25 02:11:00,
2013-06-24 19:47:00,53.0,51.0,-100.00,South,169,1.0,7.0,92,0.01,,,0.25,81.000000,,2013-06-25 02:47:00,
2013-06-24 19:56:00,53.0,51.0,-100.00,South,169,1.0,7.0,92,0.01,,,0.25,81.000000,,2013-06-25 02:56:00,
2013-06-24 20:03:00,53.0,51.0,-100.00,South,169,1.0,7.0,92,0.01,,,0.25,81.000000,,2013-06-25 03:03:00,
2013-06-24 20:12:00,53.0,51.0,-100.00,South,169,1.0,7.0,92,0.01,,,0.25,81.000000,,2013-06-25 03:12:00,
2013-06-24 20:56:00,53.0,52.0,-100.00,South,186,3.0,7.0,97,0.02,,,0.24,41.000000,,2013-06-25 03:56:00,
2013-06-24 21:01:00,53.0,52.0,-100.00,South,186,3.0,7.0,97,0.02,,,0.24,41.000000,,2013-06-25 04:01:00,
2013-06-24 21:11:00,53.0,52.0,-100.00,South,186,3.0,7.0,97,0.02,,,0.24,41.000000,,2013-06-25 04:11:00,